KLM61R EHAM-LLBG

Flight info

Callsign KLM61R
Flight time N/A
Altitude 35000
Route EDUPO Z739 MISGO DCT TIVUN DCT ESAMA DCT OSBIT DCT BARSU DCT DEXIT DCT STEIN DCT BABIT DCT NISVA/N0471F370 DCT RODIP DCT BELGI UN131 KULAR UT39 TOMBI DCT IDAKU L35 PIKOG L609 ZUKKO
Aircraft B738/M-SDE1FGHIRWXY/LB1

Departure

Time N/A
Airport Amsterdam Airport Schiphol (EHAM)

Arrival

Time 2026-05-01 08:37
Airport Ben Gurion International Airport (LLBG)
Time Latitude Longitude Altitude Speed Heading
2026-05-01 07:23 39.07294 27.88700 37112 ft 492 kts 134°
2026-05-01 07:24 39.00678 27.98818 37101 ft 492 kts 134°
2026-05-01 07:24 38.96286 28.05518 37092 ft 489 kts 134°
2026-05-01 07:25 38.91933 28.12147 37081 ft 488 kts 134°
2026-05-01 07:25 38.87544 28.18819 37073 ft 489 kts 134°
2026-05-01 07:26 38.83179 28.25511 37065 ft 489 kts 133°
2026-05-01 07:26 38.78803 28.32190 37057 ft 488 kts 133°
2026-05-01 07:27 38.74437 28.38863 37051 ft 488 kts 134°
2026-05-01 07:27 38.70044 28.45497 37045 ft 488 kts 134°
2026-05-01 07:28 38.65676 28.52068 37038 ft 487 kts 134°
2026-05-01 07:28 38.61279 28.58673 37028 ft 487 kts 134°
2026-05-01 07:29 38.56489 28.64731 37024 ft 482 kts 145°
2026-05-01 07:29 38.51098 28.69750 37021 ft 479 kts 150°
2026-05-01 07:30 38.45607 28.74590 37019 ft 479 kts 149°
2026-05-01 07:30 38.40126 28.79455 37017 ft 480 kts 149°
2026-05-01 07:31 38.34643 28.84327 37016 ft 480 kts 149°
2026-05-01 07:32 38.21003 28.96496 37012 ft 479 kts 149°
2026-05-01 07:33 38.12806 29.03766 37009 ft 479 kts 149°
2026-05-01 07:33 38.04606 29.11046 37006 ft 478 kts 149°
2026-05-01 07:34 37.96440 29.18228 37001 ft 480 kts 149°
2026-05-01 07:35 37.90937 29.23057 36999 ft 480 kts 149°
2026-05-01 07:35 37.85444 29.27870 36998 ft 479 kts 149°
2026-05-01 07:36 37.79958 29.32666 36994 ft 479 kts 149°
2026-05-01 07:36 37.74462 29.37455 36992 ft 479 kts 149°
2026-05-01 07:37 37.66228 29.44617 36993 ft 479 kts 149°
2026-05-01 07:37 37.60735 29.49389 36993 ft 479 kts 149°
2026-05-01 07:38 37.55263 29.54196 36993 ft 479 kts 149°
2026-05-01 07:39 37.47019 29.61335 36992 ft 479 kts 149°
2026-05-01 07:39 37.38803 29.68420 36990 ft 479 kts 149°
2026-05-01 07:40 37.33304 29.73163 36988 ft 479 kts 149°
2026-05-01 07:40 37.27811 29.77926 36986 ft 479 kts 149°
2026-05-01 07:41 37.22298 29.82676 36985 ft 479 kts 149°
2026-05-01 07:42 37.14075 29.89743 36982 ft 480 kts 149°
2026-05-01 07:42 37.08564 29.94483 36980 ft 480 kts 149°
2026-05-01 07:43 37.03040 29.99202 36979 ft 480 kts 150°
2026-05-01 07:43 36.94780 30.06221 36976 ft 478 kts 150°
2026-05-01 07:44 36.83729 30.15593 36971 ft 480 kts 150°
2026-05-01 07:45 36.78197 30.20276 36970 ft 480 kts 150°
2026-05-01 07:45 36.72702 30.24919 36969 ft 481 kts 150°
2026-05-01 07:46 36.67156 30.29597 36970 ft 481 kts 150°
2026-05-01 07:47 36.58841 30.36597 36969 ft 481 kts 150°
2026-05-01 07:47 36.53310 30.41275 36970 ft 481 kts 150°
2026-05-01 07:48 36.44997 30.48285 36970 ft 481 kts 150°
2026-05-01 07:48 36.39444 30.52944 36971 ft 481 kts 150°
2026-05-01 07:49 36.31114 30.59916 36972 ft 481 kts 150°
2026-05-01 07:50 36.25570 30.64573 36969 ft 481 kts 150°
2026-05-01 07:50 36.17243 30.71502 36970 ft 481 kts 150°
2026-05-01 07:51 36.11721 30.76083 36969 ft 480 kts 150°
2026-05-01 07:52 36.03409 30.83012 36973 ft 481 kts 148°
2026-05-01 07:52 35.98117 30.88126 36974 ft 485 kts 144°
2026-05-01 07:53 35.90186 30.96048 36976 ft 488 kts 146°
2026-05-01 07:53 35.84916 31.01241 36976 ft 488 kts 146°
2026-05-01 07:55 35.71655 31.14282 36977 ft 488 kts 146°
2026-05-01 07:56 35.59272 31.26405 36978 ft 488 kts 146°
2026-05-01 07:57 35.51287 31.34182 36977 ft 488 kts 146°
2026-05-01 07:58 35.40659 31.44498 36976 ft 488 kts 146°
2026-05-01 07:59 35.29990 31.54818 36975 ft 488 kts 146°
2026-05-01 08:00 35.13931 31.70283 36972 ft 490 kts 146°
2026-05-01 08:01 35.03201 31.80573 36970 ft 491 kts 146°
2026-05-01 08:02 34.95119 31.88300 36969 ft 493 kts 147°
2026-05-01 08:03 34.86995 31.96047 36968 ft 495 kts 147°
2026-05-01 08:03 34.78878 32.03767 36965 ft 495 kts 147°
2026-05-01 08:04 34.67986 32.14097 36964 ft 497 kts 147°
2026-05-01 08:05 34.59795 32.21841 36965 ft 498 kts 147°
2026-05-01 08:06 34.51614 32.29555 36965 ft 498 kts 147°
2026-05-01 08:07 34.40653 32.39862 36966 ft 499 kts 147°
2026-05-01 08:08 34.32423 32.47595 36966 ft 499 kts 147°
2026-05-01 08:09 34.21442 32.57863 36965 ft 498 kts 147°
2026-05-01 08:09 34.15949 32.62974 36965 ft 498 kts 147°
2026-05-01 08:10 34.04827 32.72830 36966 ft 494 kts 153°
2026-05-01 08:11 33.93054 32.81428 36966 ft 497 kts 154°
2026-05-01 08:12 33.84222 32.87951 36966 ft 496 kts 154°
2026-05-01 08:13 33.75417 32.94489 36967 ft 495 kts 154°
2026-05-01 08:13 33.66616 33.01021 36968 ft 495 kts 154°
2026-05-01 08:14 33.60751 33.05356 36968 ft 495 kts 154°
2026-05-01 08:14 33.54918 33.09657 36969 ft 495 kts 154°
2026-05-01 08:15 33.46119 33.16133 36970 ft 495 kts 154°
2026-05-01 08:16 33.40244 33.20448 36828 ft 496 kts 154°
2026-05-01 08:16 33.37308 33.22601 36499 ft 491 kts 154°
2026-05-01 08:16 33.34410 33.24725 35888 ft 488 kts 154°
2026-05-01 08:16 33.31510 33.26849 35146 ft 490 kts 154°
2026-05-01 08:17 33.28600 33.28978 34388 ft 492 kts 153°
2026-05-01 08:17 33.25675 33.31117 33610 ft 494 kts 153°
2026-05-01 08:17 33.22740 33.33262 32814 ft 495 kts 153°
2026-05-01 08:17 33.19795 33.35412 31997 ft 496 kts 153°
2026-05-01 08:18 33.16845 33.37564 31157 ft 498 kts 153°
2026-05-01 08:18 33.10956 33.41855 29415 ft 500 kts 153°
2026-05-01 08:19 33.05016 33.46199 27591 ft 501 kts 152°
2026-05-01 08:19 33.02030 33.48369 26630 ft 502 kts 152°
2026-05-01 08:19 32.99034 33.50542 25728 ft 501 kts 152°
2026-05-01 08:19 32.96074 33.52686 24988 ft 496 kts 152°
2026-05-01 08:20 32.93139 33.54809 24252 ft 491 kts 152°
2026-05-01 08:20 32.90238 33.56907 23517 ft 485 kts 152°
2026-05-01 08:20 32.87366 33.58983 22787 ft 480 kts 152°
2026-05-01 08:20 32.84595 33.61081 22064 ft 477 kts 148°
2026-05-01 08:21 32.81957 33.63448 21357 ft 473 kts 143°
2026-05-01 08:21 32.79525 33.66056 20670 ft 468 kts 138°
2026-05-01 08:21 32.77265 33.68815 19971 ft 464 kts 135°
2026-05-01 08:21 32.75083 33.71614 19276 ft 458 kts 135°
2026-05-01 08:22 32.72902 33.74355 18559 ft 454 kts 135°
2026-05-01 08:22 32.70731 33.77048 17846 ft 449 kts 135°
2026-05-01 08:22 32.68574 33.79709 17135 ft 444 kts 136°
2026-05-01 08:22 32.66437 33.82337 16425 ft 440 kts 136°
2026-05-01 08:23 32.64322 33.84935 15717 ft 435 kts 136°
2026-05-01 08:23 32.62224 33.87510 15012 ft 431 kts 136°
2026-05-01 08:23 32.60154 33.90049 14317 ft 426 kts 135°
2026-05-01 08:23 32.58103 33.92562 13664 ft 420 kts 135°
2026-05-01 08:24 32.56085 33.95040 12997 ft 415 kts 135°
2026-05-01 08:24 32.54141 33.97468 12640 ft 405 kts 135°
2026-05-01 08:24 32.52193 33.99906 12346 ft 401 kts 135°
2026-05-01 08:24 32.50319 34.02244 12058 ft 392 kts 135°
2026-05-01 08:25 32.48464 34.04553 11770 ft 381 kts 135°
2026-05-01 08:25 32.46660 34.06796 11488 ft 370 kts 135°
2026-05-01 08:25 32.44912 34.08969 11215 ft 360 kts 135°
2026-05-01 08:25 32.43226 34.11108 10948 ft 351 kts 132°
2026-05-01 08:26 32.41737 34.13366 10685 ft 343 kts 127°
2026-05-01 08:26 32.40453 34.15622 10427 ft 318 kts 124°
2026-05-01 08:26 32.39267 34.17761 10198 ft 307 kts 124°
2026-05-01 08:26 32.38090 34.19847 9970 ft 302 kts 125°
2026-05-01 08:27 32.36919 34.21901 9751 ft 299 kts 125°
2026-05-01 08:27 32.35754 34.23936 9530 ft 297 kts 125°
2026-05-01 08:27 32.34608 34.25933 9312 ft 297 kts 125°
2026-05-01 08:27 32.33451 34.27953 9091 ft 296 kts 125°
2026-05-01 08:28 32.32294 34.29976 8823 ft 295 kts 125°
2026-05-01 08:28 32.31144 34.31979 8547 ft 294 kts 125°
2026-05-01 08:28 32.29998 34.33969 8272 ft 292 kts 125°
2026-05-01 08:28 32.28857 34.35948 7997 ft 290 kts 125°
2026-05-01 08:29 32.27723 34.37912 7723 ft 289 kts 125°
2026-05-01 08:29 32.26606 34.39844 7453 ft 288 kts 125°
2026-05-01 08:29 32.25481 34.41791 7181 ft 286 kts 125°
2026-05-01 08:29 32.24362 34.43725 6911 ft 285 kts 124°
2026-05-01 08:30 32.23249 34.45654 6642 ft 283 kts 124°
2026-05-01 08:30 32.22139 34.47574 6374 ft 282 kts 124°
2026-05-01 08:30 32.21035 34.49478 6107 ft 280 kts 124°
2026-05-01 08:30 32.19917 34.51356 5842 ft 279 kts 125°
2026-05-01 08:31 32.18837 34.53254 5578 ft 278 kts 123°
2026-05-01 08:31 32.17800 34.55168 5316 ft 275 kts 122°
2026-05-01 08:31 32.16794 34.57067 5058 ft 272 kts 122°
2026-05-01 08:31 32.15791 34.58984 4810 ft 275 kts 121°
2026-05-01 08:32 32.14790 34.60907 4584 ft 274 kts 121°
2026-05-01 08:32 32.13804 34.62806 4358 ft 269 kts 121°
2026-05-01 08:32 32.12843 34.64660 4123 ft 258 kts 121°
2026-05-01 08:32 32.11935 34.66410 3974 ft 249 kts 121°
2026-05-01 08:33 32.11041 34.68136 3713 ft 245 kts 121°
2026-05-01 08:33 32.10158 34.69841 3386 ft 242 kts 121°
2026-05-01 08:33 32.09274 34.71546 3071 ft 242 kts 121°
2026-05-01 08:33 32.08394 34.73243 2747 ft 237 kts 121°
2026-05-01 08:34 32.07556 34.74860 2432 ft 232 kts 121°
2026-05-01 08:34 32.06731 34.76449 2125 ft 222 kts 121°
2026-05-01 08:34 32.05948 34.77959 1839 ft 208 kts 121°
2026-05-01 08:34 32.05225 34.79353 1570 ft 192 kts 121°
2026-05-01 08:35 32.04545 34.80662 1321 ft 181 kts 121°
2026-05-01 08:35 32.03910 34.81886 1096 ft 170 kts 121°
2026-05-01 08:35 32.03307 34.83049 867 ft 164 kts 121°
2026-05-01 08:35 32.02719 34.84181 655 ft 161 kts 121°
2026-05-01 08:36 32.02141 34.85294 446 ft 158 kts 121°
2026-05-01 08:36 32.01567 34.86398 242 ft 157 kts 121°
2026-05-01 08:36 32.01011 34.87472 144 ft 144 kts 122°
2026-05-01 08:36 32.00638 34.88187 143 ft 62 kts 123°
2026-05-01 08:37 32.00487 34.88469 143 ft 28 kts 128°
2026-05-01 08:37 32.00366 34.88605 143 ft 20 kts 147°
2026-05-01 08:37 32.00255 34.88673 143 ft 15 kts 166°
2026-05-01 08:37 32.00203 34.88602 143 ft 14 kts 286°
2026-05-01 08:38 32.00250 34.88507 143 ft 13 kts 301°
2026-05-01 08:38 32.00300 34.88415 143 ft 14 kts 303°
2026-05-01 08:38 32.00355 34.88307 143 ft 17 kts 301°
2026-05-01 08:38 32.00414 34.88193 143 ft 16 kts 300°
2026-05-01 08:39 32.00469 34.88087 143 ft 15 kts 303°
2026-05-01 08:39 32.00524 34.87986 143 ft 16 kts 301°
2026-05-01 08:39 32.00580 34.87874 143 ft 15 kts 302°
2026-05-01 08:39 32.00632 34.87769 143 ft 14 kts 283°
2026-05-01 08:40 32.00529 34.87620 143 ft 11 kts 237°
2026-05-01 08:40 32.00493 34.87580 143 ft 7 kts 191°
2026-05-01 08:40 32.00454 34.87575 143 ft 5 kts 202°
2026-05-01 08:41 32.00431 34.87553 143 ft 1 kts 224°
2026-05-01 08:41 32.00431 34.87552 143 ft 0 kts 224°